EW4939 Weather Reports


Display with metric or nautical units.
time (UTC)temp
F
wind
direction
speed
MPH
gust
MPH
rain 1hr
in
rain 24hr
in
rain mn
in
humidity
%
barometer
mb
20260905004427 74 111 1.0 1.0 0.00 0.26 0.26 99 1013.7
20260905003922 75 111 0.0 0.0 0.00 0.26 0.26 99 1013.8
20260905003418 75 111 0.0 0.0 0.00 0.26 0.26 99 1013.8
20260905002914 75 111 0.0 0.0 0.00 0.26 0.26 99 1013.7
20260905002414 75 111 0.0 0.0 0.00 0.26 0.26 98 1013.7
20260905001913 75 111 0.0 0.0 0.00 0.26 0.26 98 1013.6
20260905001409 75 111 0.0 0.0 0.00 0.26 0.26 98 1013.6
20260905000903 75 111 0.0 0.0 0.00 0.26 0.26 98 1013.6
20260905000359 75 111 0.0 0.0 0.00 0.26 0.26 98 1013.7
20260904235854 75 111 0.0 0.0 0.00 0.26 0.26 98 1013.8
20260904235349 75 111 1.0 1.0 0.00 0.26 0.26 98 1013.7
20260904234849 75 110 0.0 0.0 0.00 0.26 0.26 97 1013.8
20260904234344 75 110 0.0 0.0 0.00 0.26 0.26 98 1013.7
20260904233840 75 110 0.0 0.0 0.00 0.26 0.26 98 1013.8
20260904233336 75 110 0.0 0.0 0.00 0.26 0.26 97 1014.0
20260904232832 76 110 0.0 0.0 0.00 0.26 0.26 97 1013.8
20260904232329 76 110 0.0 0.0 0.00 0.26 0.26 96 1013.6
20260904231825 76 110 0.0 0.0 0.00 0.26 0.26 97 1013.8
20260904231325 76 110 0.0 0.0 0.00 0.26 0.26 97 1013.6
20260904230820 76 110 0.0 0.0 0.00 0.26 0.26 97 1013.8
20260904230318 76 110 0.0 0.0 0.00 0.26 0.26 97 1013.7
20260904225814 76 156 0.0 0.0 0.00 0.26 0.26 97 1013.9
20260904225312 76 156 0.0 0.0 0.00 0.26 0.26 96 1014.0
20260904224811 76 156 0.0 0.0 0.00 0.26 0.26 96 1013.8
20260904224308 77 156 0.0 2.0 0.00 0.26 0.26 94 1013.8
20260904223806 77 34 0.0 3.0 0.00 0.26 0.26 95 1013.9
20260904223301 77 22 0.0 2.0 0.00 0.26 0.26 96 1013.8
20260904222758 77 115 0.0 1.0 0.00 0.26 0.26 98 1013.8
20260904222253 76 170 0.0 1.0 0.00 0.26 0.26 98 1013.8
20260904221753 76 170 0.0 1.0 0.00 0.26 0.26 98 1013.9
20260904221247 76 170 1.0 1.0 0.00 0.26 0.26 98 1014.0
20260904220743 76 127 0.0 1.0 0.00 0.26 0.26 98 1014.1
20260904220242 75 163 2.0 3.0 0.00 0.26 0.26 99 1014.4
20260904215737 75 134 1.0 2.0 0.00 0.26 0.26 98 1014.3
20260904215233 74 174 2.0 2.0 0.00 0.26 0.26 99 1014.5
20260904214728 74 119 2.0 3.0 0.00 0.26 0.26 98 1014.5
20260904214224 74 171 2.0 3.0 0.05 0.26 0.26 98 1014.8
20260904213721 73 183 0.0 1.0 0.35 0.26 0.26 97 1014.8
20260904213218 73 163 1.0 2.0 1.16 0.25 0.25 96 1015.4
20260904212718 74 56 0.0 1.0 1.09 0.18 0.18 92 1016.5
20260904212213 76 330 4.0 7.0 0.31 0.05 0.05 86 1017.5
20260904211713 78 335 5.0 8.0 0.00 0.00 0.00 73 1016.7
20260904211209 79 34 3.0 6.0 0.00 0.00 0.00 68 1016.1
20260904210709 80 0 4.0 6.0 0.00 0.00 0.00 67 1015.8
20260904210204 81 345 3.0 7.0 0.00 0.00 0.00 63 1015.2
20260904205700 81 56 1.0 3.0 0.00 0.00 0.00 62 1014.7
20260904205156 82 47 5.0 7.0 0.00 0.00 0.00 61 1015.2
20260904204652 83 335 5.0 9.0 0.00 0.00 0.00 59 1015.2
20260904204147 83 9 5.0 8.0 0.00 0.00 0.00 59 1015.0
20260904203643 86 351 8.0 13.0 0.00 0.00 0.00 57 1015.0
20260904203140 97 22 9.0 14.0 0.00 0.00 0.00 51 1015.1
20260904202635 97 305 1.0 3.0 0.00 0.00 0.00 50 1014.3
20260904202132 96 343 1.0 3.0 0.00 0.00 0.00 51 1014.4
20260904201632 97 330 4.0 9.0 0.00 0.00 0.00 51 1014.3
20260904201127 97 44 2.0 3.0 0.00 0.00 0.00 50 1014.3
20260904200626 96 317 2.0 3.0 0.00 0.00 0.00 52 1014.2
20260904200121 97 321 3.0 6.0 0.00 0.00 0.00 51 1014.5
20260904195620 97 317 0.0 3.0 0.00 0.00 0.00 49 1014.2
20260904195114 97 246 2.0 3.0 0.00 0.00 0.00 49 1014.4
20260904194613 97 299 1.0 3.0 0.00 0.00 0.00 50 1014.4
20260904194108 97 270 0.0 3.0 0.00 0.00 0.00 52 1014.5
20260904193603 95 312 3.0 4.0 0.00 0.00 0.00 51 1014.5
20260904193100 96 48 3.0 6.0 0.00 0.00 0.00 51 1014.4
20260904192559 97 314 2.0 4.0 0.00 0.00 0.00 51 1014.3
20260904192055 97 294 1.0 6.0 0.00 0.00 0.00 51 1014.5
20260904191552 97 23 3.0 6.0 0.00 0.00 0.00 52 1014.5
20260904191048 97 164 1.0 1.0 0.00 0.00 0.00 51 1014.6
20260904190543 96 303 2.0 6.0 0.00 0.00 0.00 51 1014.5
20260904190039 96 274 1.0 2.0 0.00 0.00 0.00 55 1014.9
20260904185536 95 311 1.0 3.0 0.00 0.00 0.00 55 1014.7
20260904185030 96 312 4.0 4.0 0.00 0.00 0.00 53 1014.8
20260904184530 95 309 1.0 2.0 0.00 0.00 0.00 54 1015.0
20260904184026 95 305 1.0 3.0 0.00 0.00 0.00 55 1015.0
20260904183521 95 30 2.0 4.0 0.00 0.00 0.00 53 1015.0
20260904183016 95 38 3.0 4.0 0.00 0.00 0.00 53 1015.1
20260904182512 94 330 1.0 2.0 0.00 0.00 0.00 56 1015.1
20260904182012 94 26 2.0 4.0 0.00 0.00 0.00 56 1015.1
20260904181508 94 328 3.0 6.0 0.00 0.00 0.00 55 1015.4
20260904181007 94 321 2.0 6.0 0.00 0.00 0.00 57 1015.3
20260904180507 94 328 1.0 4.0 0.00 0.00 0.00 56 1015.6
20260904180002 95 349 2.0 3.0 0.00 0.00 0.00 54 1015.6
20260904175456 95 299 1.0 3.0 0.00 0.00 0.00 55 1015.6
20260904174955 95 284 1.0 2.0 0.00 0.00 0.00 54 1015.7
20260904174450 95 38 2.0 3.0 0.00 0.00 0.00 53 1016.0
20260904173947 95 231 3.0 3.0 0.00 0.00 0.00 53 1016.1
20260904173447 95 257 3.0 7.0 0.00 0.00 0.00 54 1015.8
20260904172942 94 334 3.0 4.0 0.00 0.00 0.00 54 1016.1
20260904172437 95 281 2.0 2.0 0.00 0.00 0.00 56 1016.1
20260904171932 95 183 3.0 4.0 0.00 0.00 0.00 53 1016.2
20260904171427 94 323 2.0 4.0 0.00 0.00 0.00 54 1016.2
20260904170924 94 332 1.0 4.0 0.00 0.00 0.00 54 1016.3
20260904170418 94 278 1.0 3.0 0.00 0.00 0.00 57 1016.4
20260904165914 93 154 0.0 2.0 0.00 0.00 0.00 58 1016.3
20260904165413 94 336 3.0 3.0 0.00 0.00 0.00 57 1016.2
20260904164912 94 353 1.0 2.0 0.00 0.00 0.00 56 1016.4
20260904164412 94 231 1.0 3.0 0.00 0.00 0.00 55 1016.3
20260904163909 93 325 1.0 3.0 0.00 0.00 0.00 57 1016.2
20260904163408 93 287 1.0 7.0 0.00 0.00 0.00 55 1016.3
20260904162908 93 23 3.0 4.0 0.00 0.00 0.00 57 1016.4
20260904162403 93 12 2.0 6.0 0.00 0.00 0.00 57 1016.3
20260904161858 93 302 2.0 4.0 0.00 0.00 0.00 59 1016.6
20260904161354 92 327 2.0 4.0 0.00 0.00 0.00 58 1016.4
20260904160849 92 334 2.0 3.0 0.00 0.00 0.00 59 1016.3
20260904160345 92 325 2.0 4.0 0.00 0.00 0.00 58 1016.5
20260904155840 92 314 2.0 6.0 0.00 0.00 0.00 61 1016.4
20260904155340 91 304 3.0 6.0 0.00 0.00 0.00 60 1016.4
20260904154838 91 316 3.0 3.0 0.00 0.00 0.00 63 1016.3
20260904154333 91 208 2.0 2.0 0.00 0.00 0.00 64 1016.4
20260904153829 91 309 1.0 4.0 0.00 0.00 0.00 65 1016.5
20260904153324 90 292 2.0 3.0 0.00 0.00 0.00 66 1016.4
20260904152820 90 33 1.0 2.0 0.00 0.00 0.00 66 1016.5
20260904152315 90 316 4.0 7.0 0.00 0.00 0.00 65 1016.3
20260904151810 89 241 1.0 3.0 0.00 0.00 0.00 67 1016.3
20260904151309 89 301 2.0 3.0 0.00 0.00 0.00 68 1016.3
20260904150805 89 261 1.0 2.0 0.00 0.00 0.00 67 1016.4
20260904150300 89 8 3.0 4.0 0.00 0.00 0.00 67 1016.2
20260904145758 88 267 0.0 2.0 0.00 0.00 0.00 68 1016.3
20260904145254 88 294 0.0 2.0 0.00 0.00 0.00 68 1016.3
20260904144749 88 270 1.0 2.0 0.00 0.00 0.00 69 1016.2
20260904144245 88 198 1.0 2.0 0.00 0.00 0.00 68 1016.4
20260904143740 88 53 0.0 1.0 0.00 0.00 0.00 68 1016.2
20260904143237 88 267 0.0 2.0 0.00 0.00 0.00 69 1016.3
20260904142733 87 177 1.0 1.0 0.00 0.00 0.00 68 1016.4
20260904142229 87 267 1.0 2.0 0.00 0.00 0.00 68 1016.3
20260904141728 87 254 0.0 1.0 0.00 0.00 0.00 70 1016.2
20260904141224 87 349 1.0 1.0 0.00 0.00 0.00 69 1016.0
20260904140719 87 222 0.0 3.0 0.00 0.00 0.00 69 1016.1
20260904140215 86 234 0.0 4.0 0.00 0.00 0.00 68 1016.2
20260904135713 86 342 0.0 1.0 0.00 0.00 0.00 70 1016.2
20260904135209 86 195 0.0 2.0 0.00 0.00 0.00 69 1016.2
20260904134705 86 61 1.0 2.0 0.00 0.00 0.00 69 1016.2
20260904134204 86 234 1.0 2.0 0.00 0.00 0.00 71 1016.2
20260904133659 86 206 0.0 0.0 0.00 0.00 0.00 70 1016.4
20260904133155 85 327 0.0 2.0 0.00 0.00 0.00 72 1016.2
20260904132654 85 189 0.0 2.0 0.00 0.00 0.00 72 1016.4
20260904132150 84 255 0.0 1.0 0.00 0.00 0.00 73 1016.4
20260904131649 84 156 1.0 1.0 0.00 0.00 0.00 74 1016.3
20260904131145 84 277 0.0 2.0 0.00 0.00 0.00 73 1016.3
20260904130645 84 222 0.0 3.0 0.00 0.00 0.00 73 1016.4
20260904130144 83 214 0.0 1.0 0.00 0.00 0.00 74 1016.5
20260904125641 83 205 0.0 0.0 0.00 0.00 0.00 75 1016.4
20260904125136 83 223 0.0 2.0 0.00 0.00 0.00 75 1016.4
20260904124637 82 280 2.0 2.0 0.00 0.00 0.00 76 1016.4
20260904124133 82 259 0.0 2.0 0.00 0.00 0.00 77 1016.3
20260904123632 81 149 0.0 2.0 0.00 0.00 0.00 79 1016.1
20260904123129 80 201 0.0 0.0 0.00 0.00 0.00 83 1016.3
20260904122629 78 247 0.0 1.0 0.00 0.00 0.00 87 1016.2
20260904122124 76 198 0.0 0.0 0.00 0.00 0.00 90 1016.2
20260904121619 76 198 0.0 0.0 0.00 0.00 0.00 92 1016.1
20260904121115 76 198 0.0 0.0 0.00 0.00 0.00 92 1016.1
20260904120611 76 198 0.0 0.0 0.00 0.00 0.00 93 1015.8
20260904120107 76 198 0.0 0.0 0.00 0.00 0.00 93 1016.0
20260904115601 76 198 0.0 0.0 0.00 0.00 0.00 93 1015.8
20260904115057 75 198 0.0 0.0 0.00 0.00 0.00 93 1015.7
20260904114556 75 198 0.0 0.0 0.00 0.00 0.00 94 1015.7
20260904114056 75 198 0.0 0.0 0.00 0.00 0.00 94 1015.8
20260904113551 75 198 0.0 0.0 0.00 0.00 0.00 94 1015.6
20260904113050 75 198 0.0 0.0 0.00 0.00 0.00 94 1015.7
20260904112546 75 198 0.0 0.0 0.00 0.00 0.00 94 1015.7
20260904112042 75 198 0.0 0.0 0.00 0.00 0.00 94 1015.5
20260904111537 75 198 0.0 0.0 0.00 0.00 0.00 93 1015.3
20260904111033 75 198 0.0 0.0 0.00 0.00 0.00 92 1015.3
20260904110532 75 198 0.0 0.0 0.00 0.00 0.00 93 1015.0
20260904110029 75 198 0.0 0.0 0.00 0.00 0.00 93 1015.0
20260904105527 75 198 0.0 0.0 0.00 0.00 0.00 94 1014.9
20260904105023 75 198 0.0 0.0 0.00 0.00 0.00 94 1014.9
20260904104518 75 198 0.0 0.0 0.00 0.00 0.00 94 1014.8
20260904104014 75 198 0.0 0.0 0.00 0.00 0.00 95 1014.9
20260904103510 75 198 0.0 0.0 0.00 0.00 0.00 95 1014.8
20260904103006 75 198 0.0 0.0 0.00 0.00 0.00 95 1014.9
20260904102501 75 198 0.0 0.0 0.00 0.00 0.00 95 1015.0
20260904101956 75 198 0.0 0.0 0.00 0.00 0.00 95 1015.0
20260904101453 75 198 0.0 0.0 0.00 0.00 0.00 95 1014.9
20260904100948 75 198 0.0 0.0 0.00 0.00 0.00 95 1014.8
20260904100444 75 198 0.0 0.0 0.00 0.00 0.00 95 1015.1
20260904095943 75 198 0.0 0.0 0.00 0.00 0.00 95 1015.1
20260904095438 75 198 0.0 0.0 0.00 0.00 0.00 95 1015.1
20260904094933 75 198 0.0 0.0 0.00 0.00 0.00 95 1015.0
20260904094428 75 198 0.0 0.0 0.00 0.00 0.00 95 1015.1
20260904093924 75 198 0.0 0.0 0.00 0.00 0.00 95 1014.9
20260904093420 76 198 0.0 0.0 0.00 0.00 0.00 95 1015.0
20260904092915 76 198 0.0 0.0 0.00 0.00 0.00 95 1014.9
20260904092412 76 198 0.0 0.0 0.00 0.00 0.00 95 1014.9
20260904091907 76 198 0.0 0.0 0.00 0.00 0.00 95 1014.8
20260904091402 76 198 0.0 0.0 0.00 0.00 0.00 95 1015.0
20260904090857 76 198 0.0 0.0 0.00 0.00 0.00 95 1015.0
20260904090353 76 198 0.0 0.0 0.00 0.00 0.00 95 1015.0
20260904085848 76 198 0.0 0.0 0.00 0.00 0.00 95 1015.1
20260904085343 76 198 0.0 0.0 0.00 0.00 0.00 95 1015.0
20260904084843 76 198 0.0 0.0 0.00 0.00 0.00 95 1015.1
20260904084339 76 198 0.0 0.0 0.00 0.00 0.00 95 1015.0
20260904083835 76 198 0.0 0.0 0.00 0.00 0.00 95 1015.0
20260904083331 76 198 0.0 0.0 0.00 0.00 0.00 95 1015.1
20260904082827 76 198 0.0 0.0 0.00 0.00 0.00 95 1015.2
20260904082321 76 198 0.0 0.0 0.00 0.00 0.00 95 1015.2
20260904081816 76 198 0.0 0.0 0.00 0.00 0.00 95 1015.1
20260904081312 76 198 0.0 0.0 0.00 0.00 0.00 95 1015.0
20260904080808 76 198 0.0 0.0 0.00 0.00 0.00 95 1015.3
20260904080303 76 198 0.0 0.0 0.00 0.00 0.00 94 1015.3
20260904075759 76 198 0.0 0.0 0.00 0.00 0.00 94 1015.1
20260904075254 76 198 0.0 0.0 0.00 0.00 0.00 94 1015.1
20260904074753 76 198 0.0 0.0 0.00 0.00 0.00 94 1015.1
20260904074243 76 198 0.0 0.0 0.00 0.00 0.00 94 1015.3
20260904073738 76 198 0.0 1.0 0.00 0.00 0.00 94 1015.3
20260904073234 77 198 0.0 0.0 0.00 0.00 0.00 93 1015.3
20260904072730 76 198 0.0 1.0 0.00 0.00 0.00 94 1015.2
20260904072229 76 198 0.0 0.0 0.00 0.00 0.00 94 1015.3
20260904071725 76 198 0.0 0.0 0.00 0.00 0.00 93 1015.3
20260904071225 76 198 0.0 0.0 0.00 0.00 0.00 93 1015.2
20260904070720 76 198 0.0 0.0 0.00 0.00 0.00 93 1015.4
20260904070219 76 198 0.0 0.0 0.00 0.00 0.00 93 1015.5
20260904065714 76 198 0.0 0.0 0.00 0.00 0.00 93 1015.4
20260904065211 76 198 0.0 0.0 0.00 0.00 0.00 93 1015.6
20260904064710 76 198 0.0 0.0 0.00 0.00 0.00 93 1015.4
20260904064205 76 198 0.0 0.0 0.00 0.00 0.00 92 1015.7
20260904063701 76 198 0.0 0.0 0.00 0.00 0.00 92 1015.6
20260904063157 77 198 0.0 0.0 0.00 0.00 0.00 92 1015.6
20260904062653 77 198 0.0 0.0 0.00 0.00 0.00 91 1015.5
20260904062148 77 198 0.0 0.0 0.00 0.00 0.00 91 1015.5
20260904061644 77 198 0.0 0.0 0.00 0.00 0.00 90 1015.7
20260904061140 77 198 0.0 0.0 0.00 0.00 0.00 89 1015.8
20260904060636 77 198 0.0 0.0 0.00 0.00 0.00 89 1015.8
20260904060132 78 198 0.0 0.0 0.00 0.00 0.00 89 1015.8
20260904055632 78 198 0.0 0.0 0.00 0.00 0.00 88 1015.7
20260904055127 78 198 0.0 0.0 0.00 0.00 0.00 87 1016.0
20260904054623 78 198 0.0 0.0 0.00 0.00 0.00 87 1015.8
20260904054119 78 198 0.0 0.0 0.00 0.00 0.00 86 1015.8
20260904053614 78 198 0.0 0.0 0.00 0.00 0.00 86 1015.6
20260904053108 79 198 0.0 0.0 0.00 0.00 0.00 85 1015.8
20260904052605 79 198 0.0 0.0 0.00 0.00 0.00 86 1015.7
20260904052101 80 198 0.0 0.0 0.00 0.00 0.00 84 1016.0
20260904051557 80 198 0.0 0.0 0.00 0.00 0.00 83 1015.7
20260904051056 81 198 0.0 0.0 0.00 0.00 0.00 80 1015.7
20260904050552 81 198 0.0 0.0 0.00 0.00 0.00 80 1015.6
20260904050048 82 198 0.0 0.0 0.00 0.00 0.00 77 1015.7
20260904045543 83 198 0.0 1.0 0.00 0.00 0.00 76 1015.7
20260904045038 83 198 0.0 1.0 0.00 0.00 0.00 76 1015.8
20260904044533 82 198 1.0 1.0 0.00 0.00 0.00 76 1015.7
20260904044030 82 198 0.0 0.0 0.00 0.00 0.00 76 1015.6
20260904043526 82 198 0.0 1.0 0.00 0.00 0.00 76 1015.8
20260904043021 83 198 0.0 1.0 0.00 0.00 0.00 76 1015.6
20260904042518 83 198 1.0 1.0 0.00 0.00 0.00 76 1015.6
20260904042014 84 198 1.0 1.0 0.00 0.00 0.00 74 1015.7
20260904041509 83 198 0.0 2.0 0.00 0.00 0.00 74 1015.5
20260904041005 82 198 1.0 1.0 0.00 0.00 0.00 76 1015.5
20260904040504 82 196 0.0 1.0 0.00 0.00 0.00 76 1015.5
20260904040001 82 196 0.0 1.0 0.00 0.00 0.00 77 1015.7
20260904035457 81 196 0.0 1.0 0.00 0.00 0.00 79 1015.4
20260904034955 81 196 1.0 1.0 0.00 0.00 0.00 80 1015.6
20260904034451 81 196 1.0 1.0 0.00 0.00 0.00 81 1015.4
20260904033947 81 196 0.0 1.0 0.00 0.00 0.00 81 1015.6
20260904033443 81 196 0.0 1.0 0.00 0.00 0.00 81 1015.7
20260904032939 81 196 0.0 1.0 0.00 0.00 0.00 81 1015.5
20260904032434 82 196 0.0 1.0 0.00 0.00 0.00 80 1015.5
20260904031933 82 196 1.0 1.0 0.00 0.00 0.00 78 1016.0
20260904031433 82 196 1.0 1.0 0.00 0.00 0.00 79 1015.6
20260904030930 81 196 1.0 1.0 0.00 0.00 0.00 79 1015.7
20260904030425 81 196 1.0 1.0 0.00 0.00 0.00 81 1015.7
20260904025920 81 196 0.0 1.0 0.00 0.00 0.00 81 1015.7
20260904025416 81 196 1.0 1.0 0.00 0.00 0.00 81 1015.6
20260904024916 81 197 1.0 1.0 0.00 0.00 0.00 81 1016.0
20260904024411 82 197 0.0 1.0 0.00 0.00 0.00 79 1015.7
20260904023907 82 197 0.0 1.0 0.00 0.00 0.00 79 1016.0
20260904023403 81 215 0.0 0.0 0.00 0.00 0.00 80 1016.0
20260904022902 81 6 0.0 1.0 0.00 0.00 0.00 80 1016.0
20260904022359 82 10 1.0 1.0 0.00 0.00 0.00 80 1015.6
20260904021855 82 11 0.0 1.0 0.00 0.00 0.00 80 1015.7
20260904021350 82 12 0.0 1.0 0.00 0.00 0.00 80 1015.7
20260904020846 82 18 1.0 1.0 0.00 0.00 0.00 80 1015.7
20260904020341 82 19 1.0 1.0 0.00 0.00 0.00 81 1015.6
20260904015839 82 19 1.0 1.0 0.00 0.00 0.00 81 1015.8
20260904015335 82 19 0.0 1.0 0.00 0.00 0.00 80 1015.8
20260904014833 82 19 0.0 0.0 0.00 0.00 0.00 80 1015.7
20260904014329 82 19 0.0 0.0 0.00 0.00 0.00 80 1016.0
20260904013824 81 19 0.0 0.0 0.00 0.00 0.00 80 1016.1
20260904013320 82 19 0.0 0.0 0.00 0.00 0.00 80 1016.0
20260904012816 82 19 0.0 0.0 0.00 0.00 0.00 79 1015.8
20260904012311 82 19 0.0 0.0 0.00 0.00 0.00 78 1016.0
20260904011810 82 19 0.0 0.0 0.00 0.00 0.00 78 1016.0
20260904011306 82 19 0.0 0.0 0.00 0.00 0.00 78 1015.7
20260904010805 83 19 0.0 0.0 0.00 0.00 0.00 78 1015.8
20260904010303 83 19 0.0 0.0 0.00 0.00 0.00 76 1015.8
20260904005803 83 19 0.0 0.0 0.00 0.00 0.00 76 1015.7
20260904005258 83 19 0.0 0.0 0.00 0.00 0.00 77 1015.6